sat.trackr.live / text

‹ back to catalog

STARLINK-2607

NORAD 48391 · 2021-038AQ

PAYLOAD ACTIVE UNKNOWN

§ Identity

Operator
Country
US
Launch date
2021-05-04
Launch site
AFETR
Launch vehicle
Mass (kg)
RCS (m²)

Purposes: comms

External: N2YO · Heavens-Above · Gunter

§ Orbital elements

Epoch: 2026-05-24T22:28:29.183232Z

Period
94.01 min
Inclination
53.1614°
Eccentricity
0.0001120
Mean motion
15.31712058 rev/d
Perigee alt
469.9 km
Apogee alt
471.5 km
Semi-major
6,848.8 km
B*
1.8421e-5
RAAN
338.3861°
Arg perigee
86.6549°
Mean anomaly
273.4581°
Rev number
28,033

§ Raw data

STARLINK-26071 48391U 21038AQ  26144.93644888  .00000207  00000+0  18421-4 0  99942 48391  53.1614 338.3861 0001120  86.6549 273.4581 15.31712058280330

JSON: /api/v1/satellites/48391 · /tle

For live sub-satellite position, see the globe view (requires WebGL).

§ Visibility from observer

Set your observer location to see the next 7 days of passes ≥ 10°. The values pass through the URL so the page stays shareable.

No JS? Fill the form by hand. The geolocation button needs JavaScript.